Lexington Weather

Lexington, Massachusetts, USA

44°F
9/19/2020 8:14am 
  • Lexington Conditions: Clear
  • Temperature: 44.1°F / 6.7°CWarmer 1.3°F than last hour.
  • Dew Point: 36.0°FIncreased 0.9°Fsince last hour.
  • Relative Humidity: 73%Decreased 1.0% since last hour.
  • Wind: Wind from NNE NNE 1 mph, 10-min avg: Calm, gust: 2 mph
  • Barometer: 30.25 inRising 0.03  inHg/hr Rising Slowly
  • Visibility: 10 miles
  • Rain Today: 0.00 in
  •   
Southeast Middlesex County - Special Weather Statement
 - SEE ALL NEARBY ALERTS -

Regional Weather Roundup
for Boston / Norton, MA

        
000
ASUS41 KBOX 190104
RWRBOX

REGIONAL WEATHER ROUNDUP
NATIONAL WEATHER SERVICE BOSTON/NORTON MA
900 PM EDT FRI SEP 18 2020

NOTE:  "FAIR" INDICATES FEW OR NO CLOUDS BELOW 12,000 FEET WITH NO 
SIGNIFICANT WEATHER AND/OR OBSTRUCTIONS TO VISIBILITY.

MAZALL-190200-
EASTERN MASSACHUSETTS
  
CITY           SKY/WX    TMP DP  RH WIND       PRES   REMARKS
BOSTON         PTCLDY    57  45  64 N9        30.06R                  
BEVERLY        PTCLDY    53  47  79 NW7       30.05R                  
LAWRENCE       CLEAR     56  34  43 N7        30.09R                  
BEDFORD        CLEAR     55  34  45 NW12G18   30.06R                  
BLUE HILL        N/A     55  40  56 NW12G23   30.04R                  
NORWOOD        CLEAR     59  40  49 N10       30.05R                  
MARSHFIELD     PTCLDY    61  46  59 VRB3      30.03R                  
PLYMOUTH       PTCLDY    55  43  63 N5        30.03R                  
TAUNTON        PTCLDY    49  44  83 CALM      30.03R                  
NEW BEDFORD    CLEAR     54  46  74 CALM      30.02R                  
$$

MAZALL-190200-
CAPE COD AND THE ISLANDS
  
CITY           SKY/WX    TMP DP  RH WIND       PRES   REMARKS
FALMOUTH       CLEAR     57  46  67 N7        30.00R                  
HYANNIS        CLEAR     58  49  72 N10G21    29.99R                  
CHATHAM        PTCLDY    59  49  69 VRB7G18   30.00R                  
PROVINCETOWN   PTCLDY    60  50  69 NE16G22   30.02R                  
NANTUCKET      PTCLDY    59  51  75 N21G31    29.98R                  
MARTHAS VNYRD  CLEAR     57  47  69 N10       30.01R                  
$$
 
MAZALL-190200-
CENTRAL AND WESTERN MASSACHUSETTS
  
CITY           SKY/WX    TMP DP  RH WIND       PRES   REMARKS
WORCESTER      CLEAR     53  34  48 N14       30.08R                  
FITCHBURG      CLEAR     55  32  41 N15G25    30.10R                  
ORANGE         CLEAR     53  33  46 N18G26    30.13R                  
SPRINGFIELD    CLEAR     55  33  42 N21G29    30.09R                  
WESTFIELD      CLEAR     53  33  46 N14       30.11R                  
NORTH ADAMS    CLEAR     45  36  70 VRB3      30.17R                  
PITTSFIELD     CLEAR     50  32  50 N9        30.14R                  
$$
 
RIZALL-190200-
RHODE ISLAND
  
CITY           SKY/WX    TMP DP  RH WIND       PRES   REMARKS
PROVIDENCE     PTCLDY    58  48  69 N6        30.04R                  
NEWPORT        CLEAR     57  46  66 NE5       30.03R                  
BLOCK ISLAND   CLEAR     59  48  67 N7        30.04R                  
SMITHFIELD     CLEAR     55  45  68 N9        30.06R                  
WESTERLY       CLEAR     58  48  69 NW3       30.04R                  
$$
 
CTZALL-190200-
CONNECTICUT
  
CITY           SKY/WX    TMP DP  RH WIND       PRES   REMARKS
BRADLEY INTL   PTCLDY    55  33  43 N13       30.10R                  
HARTFORD       CLEAR     60  31  33 N9G18     30.08R                  
BRIDGEPORT     CLEAR     61  34  36 N13       30.07R                  
DANBURY        CLEAR     57  34  41 N9        30.11R                  
GROTON         CLEAR     56  49  77 N6        30.04R                  
NEW HAVEN      CLEAR     62  34  35 N10       30.07R                  
CHESTER        NOT AVBL                                               
MERIDEN        PTCLDY    59  28  30 N9        30.08R                  
WILLIMANTIC    CLEAR     56  44  64 N9        30.07R                  
OXFORD         CLEAR     52  34  50 N10       30.10R                  
$$

MEZ002-015-021-024-NHZ003-005-008-011-012-014-VTZ005-008-190200-
NORTHERN NEW ENGLAND
  
CITY           SKY/WX    TMP DP  RH WIND       PRES   REMARKS
PORTLAND ME    PTCLDY    58  33  39 N14G24    30.07R                  
BANGOR ME      CLEAR     50  33  52 N10       30.06R                  
CONCORD NH     CLOUDY    53  30  41 NW13G20   30.11R                  
MANCHESTER NH  PTCLDY    57  30  35 NW23G31   30.08R                  
NASHUA NH      MOCLDY    56  32  40 NW13G22   30.10R                  
PORTSMOUTH NH  PTCLDY    57  29  34 N8        30.05                   
JAFFREY NH     CLEAR     50  31  48 VRB6      30.12R                  
KEENE NH       CLEAR     51  32  48 N20       30.14R                  
BURLINGTON VT  MOCLDY    49  33  54 CALM      30.21R                  
MT. WASHINGTON FOG       23  23 100 N31G38      N/A  VSB 1/8 WCI   5  
$$

NYZ052-076-190200-
EASTERN NEW YORK
  
CITY           SKY/WX    TMP DP  RH WIND       PRES   REMARKS
ALBANY         PTCLDY    48  31  51 N13       30.19R                  
NEW YORK CITY  PTCLDY    65  42  43 N10       30.07R                  
$$
 
ANZALL-190200-
MARINE OBSERVATIONS
  
STATION/POSITION TIME  TEMP    WIND        PRES    VSBY  WAVE
                       AIR SEA DIR/SP/G                  HT/PER
                 (UTC) (F)     (DEG/KT/KT) (MB)    (MI)  (FT/S)
BOSTON BUOY      0050   61 62   20/ 12/ 14 1016.0R         5/ 7
BUZZARDS BAY     0000           20/ 16/ 18 1016.7R
NANTUCKET SOUND  0050      69   10/ 17/ 23   N/A           3/ 4
MASS BAY-STELLWA 0004   60      70/ 12/ 16 1014.3R  1 7/8  7/11
ISLE OF SHOALS   0000   59      40/  8/  9 1016.2R
S OF BLOCK IS    0026      67                N/A           5/ 5
$$

......................KEY.........................
  SKY/WX - SKY CONDITION/PRESENT WEATHER
  TMP    - TEMPERATURE IN FAHRENHEIT
  DWPT   - DEWPOINT IN FAHRENHEIT
  RH     - RELATIVE HUMIDITY IN PERCENT
  WIND   - DIRECTION AND SPEED IN MPH
  PRES   - MEAN SEA LEVEL PRESSURE IN INCHES OF HG
  WCI    - WIND CHILL INDEX
  VSB    - VISIBILITY IN MILES
  HX     - HEAT INDEX
  TC     - TEMPERATURE IN CELSIUS
  VRB    - VARIABLE WIND DIRECTION
  N/A    - NOT AVAILABLE
  
      

Other recent Regional Weather Roundups

Sat Sep 19, 7:04am

Sat Sep 19, 6:04am

Sat Sep 19, 5:04am

Sat Sep 19, 4:04am

Sat Sep 19, 3:04am

Sat Sep 19, 2:04am

Sat Sep 19, 1:04am

Sat Sep 19, 12:04am

Fri Sep 18, 11:05pm

Fri Sep 18, 10:04pm

Fri Sep 18, 8:04pm

Fri Sep 18, 7:04pm

Fri Sep 18, 6:04pm

Fri Sep 18, 5:05pm

Fri Sep 18, 4:04pm

Fri Sep 18, 3:05pm

Fri Sep 18, 2:04pm

Fri Sep 18, 1:04pm

Fri Sep 18, 12:04pm

Fri Sep 18, 11:05am

Fri Sep 18, 10:05am

Fri Sep 18, 9:04am

Fri Sep 18, 8:04am

Fri Sep 18, 7:04am

Fri Sep 18, 6:04am

Fri Sep 18, 5:04am

Fri Sep 18, 4:04am

Fri Sep 18, 3:04am

Fri Sep 18, 2:04am

Fri Sep 18, 1:04am

Fri Sep 18, 12:04am

Thu Sep 17, 11:05pm

Thu Sep 17, 10:04pm

Thu Sep 17, 9:04pm

Thu Sep 17, 8:05pm

Thu Sep 17, 7:04pm

Thu Sep 17, 6:04pm

Thu Sep 17, 5:04pm

Thu Sep 17, 4:04pm

Thu Sep 17, 3:05pm

Thu Sep 17, 2:04pm

Thu Sep 17, 1:04pm

Thu Sep 17, 12:04pm

Thu Sep 17, 11:04am

Thu Sep 17, 10:04am

Thu Sep 17, 9:04am

Thu Sep 17, 8:04am

Thu Sep 17, 7:04am

Thu Sep 17, 6:04am

Thu Sep 17, 5:04am

Thu Sep 17, 4:04am

Thu Sep 17, 3:04am

Thu Sep 17, 2:05am

Thu Sep 17, 1:05am

Thu Sep 17, 12:04am

Wed Sep 16, 11:04pm

Wed Sep 16, 10:04pm

Wed Sep 16, 9:04pm

Wed Sep 16, 8:05pm

Wed Sep 16, 7:04pm

Wed Sep 16, 6:04pm

Wed Sep 16, 5:04pm

Wed Sep 16, 4:04pm

Wed Sep 16, 3:04pm

Wed Sep 16, 2:04pm

Wed Sep 16, 1:04pm

Wed Sep 16, 12:04pm

Wed Sep 16, 11:04am

Wed Sep 16, 10:04am

Wed Sep 16, 9:04am

Wed Sep 16, 8:04am

Wed Sep 16, 7:04am

Wed Sep 16, 6:04am

Wed Sep 16, 5:04am

Wed Sep 16, 4:04am

Wed Sep 16, 3:04am

Wed Sep 16, 2:04am

Wed Sep 16, 1:04am

Wed Sep 16, 12:05am

Tue Sep 15, 11:04pm

Tue Sep 15, 10:04pm

Tue Sep 15, 9:04pm

Tue Sep 15, 8:04pm

Tue Sep 15, 7:04pm

Tue Sep 15, 6:04pm

Tue Sep 15, 5:04pm

Tue Sep 15, 4:05pm

Tue Sep 15, 3:04pm

Tue Sep 15, 2:04pm

Tue Sep 15, 1:04pm

Tue Sep 15, 12:04pm

Tue Sep 15, 11:04am

Tue Sep 15, 10:04am

Tue Sep 15, 9:04am

Tue Sep 15, 8:04am

Tue Sep 15, 7:04am

Tue Sep 15, 6:04am

Tue Sep 15, 5:04am

Tue Sep 15, 4:04am

Tue Sep 15, 3:04am

Tue Sep 15, 2:04am

Tue Sep 15, 1:04am

Tue Sep 15, 12:05am

Mon Sep 14, 11:04pm

Mon Sep 14, 10:04pm

Mon Sep 14, 9:04pm

Mon Sep 14, 8:04pm

Mon Sep 14, 7:04pm

Mon Sep 14, 6:04pm

Mon Sep 14, 5:04pm

Mon Sep 14, 4:05pm

Mon Sep 14, 3:04pm

Mon Sep 14, 2:05pm

Mon Sep 14, 1:04pm

Mon Sep 14, 12:04pm

Mon Sep 14, 11:04am

Mon Sep 14, 10:05am

Mon Sep 14, 9:04am

Mon Sep 14, 8:04am

Mon Sep 14, 7:04am

Mon Sep 14, 6:04am

Mon Sep 14, 5:04am

Mon Sep 14, 4:04am

Mon Sep 14, 3:04am

Mon Sep 14, 2:04am

Mon Sep 14, 1:04am

Mon Sep 14, 12:04am

Sun Sep 13, 11:05pm

Sun Sep 13, 10:04pm

Sun Sep 13, 9:04pm

Sun Sep 13, 8:04pm

Sun Sep 13, 7:05pm

Sun Sep 13, 6:05pm

Sun Sep 13, 5:05pm

Sun Sep 13, 4:04pm

Sun Sep 13, 3:04pm

Sun Sep 13, 2:04pm

Sun Sep 13, 1:04pm

Sun Sep 13, 12:04pm

Sun Sep 13, 11:05am

Sun Sep 13, 10:04am

Sun Sep 13, 9:04am

Sun Sep 13, 8:04am

Sun Sep 13, 7:04am

Sun Sep 13, 6:04am

Sun Sep 13, 5:04am

Sun Sep 13, 4:04am

Sun Sep 13, 3:04am

Sun Sep 13, 2:04am

Sun Sep 13, 1:04am

Sun Sep 13, 12:04am

Sat Sep 12, 11:04pm

Sat Sep 12, 10:04pm

Sat Sep 12, 9:04pm

Sat Sep 12, 8:04pm

Sat Sep 12, 7:05pm

Sat Sep 12, 6:04pm

Sat Sep 12, 5:04pm

Sat Sep 12, 4:05pm

Sat Sep 12, 3:04pm

Sat Sep 12, 2:04pm

Sat Sep 12, 1:05pm

Sat Sep 12, 12:04pm

Sat Sep 12, 11:04am

Sat Sep 12, 10:04am

Sat Sep 12, 9:04am

Sat Sep 12, 8:04am

Meta data:

ID: c9aeab49-c4e4-45da-8ab6-28b7696974f2
Link: https://api.weather.gov/products/c9aeab49-c4e4-45da-8ab6-28b7696974f2